{"data":{"norad_id":53065,"epoch":"2026-09-19T17:35:03.571872Z","epoch_age_seconds":135722,"freshness":"FRESH","line1":"1 53065U 22077Y   26262.73268023  .00000657  00000+0  22672-4 0  9996","line2":"2 53065  97.2855  77.5458 0001603  88.3754 271.7672 15.33435632230178","mean_motion":15.33435632,"eccentricity":0.0001603,"inclination_deg":97.2855,"raan_deg":77.5458,"arg_perigee_deg":88.3754,"mean_anomaly_deg":271.7672,"bstar":2.2672e-5,"rev_number":23017,"period_min":93.906778344642,"perigee_km":464.47400079711,"apogee_km":466.66809359705,"semimajor_km":6843.7080471971,"source":"CELESTRAK","updated_at":"2026-09-20T09:00:40.154517Z"}}